Location: Fort Worth, Tx
(32.7431°N, 97.3695°W)
Time: 04:37:27
(UTC-04:00)

Vanguard 3 - Pass Details

Date: 23 February 2024
Orbit: 510 x 3234 km, 33.3° (Epoch: 24 April)

Event Time Altitude Azimuth Distance (km) Brightness Sun altitude
Rises 00:07:17 0° 259° (W) 7,165 12.2 -58.3°
Reaches altitude 10° 00:12:06 10° 259° (W) 6,172 11.8 -59.1°
Enters shadow 00:22:48 41° 261° (W) 3,982 10.5 -60.7°
